VE1AIC-4 Weather Reports


time (UTC)temp
F
wind
direction
speed
knots
gust
knots
rain 1hr
in
rain 24hr
in
rain mn
in
humidity
%
barometer
mb
20260505012017 47 227 7.8 13.0 0.00 0.81 0.63 80 1002.6
20260505011100 47 247 8.7 20.9 0.00 0.85 0.63 79 1002.5
20260505010042 47 210 7.8 23.5 0.00 0.88 0.63 79 1002.4
20260505005019 47 235 6.1 12.2 0.00 0.91 0.63 79 1002.3
20260505004030 47 229 7.8 14.8 0.00 0.93 0.63 78 1002.2
20260505003051 47 234 7.8 19.1 0.00 0.96 0.63 78 1001.9
20260505002101 47 215 9.6 19.1 0.00 0.99 0.63 77 1001.7
20260505001032 47 243 8.7 18.2 0.00 1.02 0.63 76 1001.5
20260505000043 48 237 8.7 20.9 0.00 1.03 0.63 75 1001.4
20260504235024 48 237 8.7 14.8 0.00 1.06 0.63 73 1001.1
20260504234035 49 225 8.7 16.5 0.00 1.07 0.63 72 1000.8
20260504233045 49 220 7.8 16.5 0.00 1.08 0.63 72 1000.7
20260504232025 48 231 9.6 18.2 0.00 1.10 0.63 71 1000.6
20260504231037 49 226 8.7 16.5 0.00 1.13 0.63 69 1000.4
20260504230106 50 204 9.6 18.2 0.00 1.16 0.63 66 1000.2
20260504225100 50 232 9.6 25.2 0.00 1.19 0.63 63 1000.0
20260504224042 50 226 8.7 19.1 0.00 1.23 0.63 64 1000.0
20260504223121 50 221 10.4 18.2 0.00 1.25 0.63 63 1000.0
20260504222100 50 223 9.6 18.2 0.00 1.26 0.63 62 1000.0
20260504221041 51 246 8.7 22.6 0.00 1.27 0.63 59 999.8
20260504220021 52 244 12.2 25.2 0.00 1.29 0.63 57 999.8
20260504215031 51 238 12.2 22.6 0.00 1.31 0.63 58 999.8
20260504214042 51 198 13.9 25.2 0.00 1.33 0.63 55 999.7
20260504213124 52 225 11.3 25.2 0.00 1.35 0.63 53 999.5
20260504212105 53 234 13.0 26.9 0.00 1.36 0.63 53 999.6
20260504211117 53 205 9.6 22.6 0.00 1.40 0.63 57 999.5
20260504210025 54 258 11.3 20.9 0.00 1.43 0.63 56 999.1
20260504205055 54 234 8.7 18.2 0.00 1.45 0.63 56 999.3
20260504204118 56 225 9.6 22.6 0.00 1.47 0.63 53 999.2
20260504203233 55 209 9.6 22.6 0.00 1.50 0.63 54 999.0
20260504202038 54 201 9.6 16.5 0.00 1.52 0.63 55 999.1
20260504201122 55 218 11.3 27.8 0.00 1.55 0.63 53 999.1
20260504200131 56 237 8.7 19.1 0.00 1.57 0.63 52 998.8
20260504195039 57 233 7.0 16.5 0.00 1.60 0.63 52 998.8
20260504194050 57 237 7.8 19.1 0.00 1.62 0.63 51 998.7
20260504193030 57 232 9.6 18.2 0.00 1.63 0.63 50 998.6
20260504192113 56 219 10.4 23.5 0.00 1.63 0.63 52 998.6
20260504191124 55 218 8.7 16.5 0.00 1.65 0.63 55 998.5
20260504190124 56 190 7.8 16.5 0.00 1.66 0.63 53 998.5
20260504185115 56 209 9.6 20.9 0.00 1.66 0.63 52 998.2
20260504184023 57 252 7.0 23.5 0.00 1.67 0.63 50 998.3
20260504183035 56 201 7.8 13.0 0.00 1.68 0.63 51 998.2
20260504182147 56 220 7.0 16.5 0.00 1.68 0.63 52 998.3
20260504181045 56 254 9.6 23.5 0.00 1.68 0.63 54 998.3
20260504180036 56 180 8.7 20.9 0.00 1.69 0.63 56 998.4
20260504175017 55 237 7.8 14.8 0.00 1.69 0.63 57 998.2
20260504174027 55 266 9.6 20.9 0.00 1.69 0.63 59 998.3
20260504173112 54 244 9.6 25.2 0.00 1.70 0.63 60 998.3
20260504172019 55 253 10.4 23.5 0.00 1.70 0.63 59 998.1
20260504171030 55 221 7.8 22.6 0.00 1.70 0.63 55 998.1
20260504160105 53 220 6.1 12.2 0.00 1.76 0.63 65 997.4
20260504151128 51 248 8.7 25.2 0.00 1.79 0.63 70 997.0
20260504141041 46 249 7.8 13.0 0.00 1.79 0.63 80 996.4
20260504110226 40 290 6.1 13.0 0.04 1.77 0.61 96 992.4
20260504100143 38 272 5.2 8.7 0.05 1.73 0.57 96 991.1
20260504081102 35 300 9.6 13.0 0.12 1.58 0.42 97 987.6
20260504050138 37 345 14.8 29.5 0.06 1.31 0.15 96 982.3
20260504045038 37 344 16.5 39.1 0.07 1.30 0.14 96 982.1
20260504044200 37 346 15.6 35.6 0.07 1.29 0.13 96 981.8
20260504043119 36 331 14.8 27.8 0.07 1.28 0.12 96 981.9
20260504042146 36 331 13.9 19.1 0.08 1.27 0.11 96 981.7
20260504041212 36 334 11.3 19.1 0.09 1.26 0.10 96 981.7
20260504040034 36 340 20.9 39.1 0.09 1.25 0.09 96 981.4
20260504035114 36 320 16.5 27.8 0.08 1.23 0.07 97 981.5
20260504034022 36 338 20.9 37.4 0.09 1.22 0.06 96 981.5
20260504033225 36 338 17.4 33.0 0.10 1.21 0.05 96 981.6
20260504032216 36 339 18.2 31.3 0.09 1.19 0.03 96 981.8
20260504031024 36 334 22.6 40.0 0.09 1.17 0.01 97 981.8
20260504030036 36 5 21.7 33.9 0.10 1.16 0.00 97 981.9
20260504025046 36 356 17.4 33.9 0.11 1.15 1.15 96 982.1
20260504024102 36 344 20.0 40.0 0.11 1.13 1.13 97 982.3
20260504023036 36 339 20.0 39.1 0.10 1.11 1.11 97 982.6
20260504022016 36 328 19.1 33.9 0.12 1.10 1.10 96 983.0
20260504021029 36 336 19.1 33.9 0.14 1.08 1.08 96 983.3
20260504020038 35 342 21.7 33.0 0.15 1.06 1.06 96 983.6
20260504015121 36 350 18.2 35.6 0.16 1.04 1.04 96 983.9
20260504014030 36 351 24.3 40.0 0.16 1.02 1.02 96 984.2
20260504013040 37 336 22.6 33.9 0.18 1.01 1.01 96 984.3